{"data":{"norad_id":67522,"intl_designator":"2026-013A","name":"HULIANWANG DIGUI-146","alt_names":[],"object_type":"PAYLOAD","status":"ACTIVE","operator":null,"country":"PRC","launch_date":"2026-01-19","launch_site_code":"WSC","launch_vehicle":null,"mission":null,"orbit_class":"UNKNOWN","rcs_meters":null,"size_class":null,"mass_kg":null,"dimensions":null,"purposes":[],"wikipedia_slug":null,"has_3d_model":false,"image_url":null,"decayed_at":null,"tle_current":{"epoch":"2026-09-20T13:28:45.330528Z","epoch_age_seconds":91364,"freshness":"FRESH","line1":"1 67522U 26013A   26263.56163577 -.00000102  00000+0  47359-4 0  9998","line2":"2 67522  50.0103  13.8605 0000783 103.1997 256.8963 13.29329340 32734","mean_motion":13.2932934,"eccentricity":7.83e-5,"inclination_deg":50.0103,"raan_deg":13.8605,"arg_perigee_deg":103.1997,"mean_anomaly_deg":256.8963,"bstar":4.7359e-5,"rev_number":3273,"period_min":108.32530033528,"perigee_km":1148.7045653095,"apogee_km":1149.8833609983,"semimajor_km":7527.4309631539,"source":"CELESTRAK","updated_at":"2026-09-21T09:00:16.678090Z"}}}